Weather in Tyshkivka

Ukraine / Kirovohrad Region     48°29′47″N   30°56′10″E
temp.,
°C
wind,
m/s
gust,
m/s
humid.,
%
clouds,
%
prec.,
mm/h
press.,
hPa
HPBL,
m
10 may, mon
mon1000:00+7ssw11715 0.0 102610
03:00+6ne11745 0.0 102710
06:00+6e11775 0.0 102710
09:00+12ne11580 0.0 1027430
12:00+15nne33410 0.0 10261715
15:00+17nne34395 0.0 10241893
18:00+16nne45464 0.0 10231635
21:00+10nne47630 0.0 1024108
11 may, tue
tue1100:00+8nne35690 0.0 102367
03:00+7n477599 0.0 1022124
06:00+7nnw4107799 0.0 1021224
09:00+10n6106551 0.0 1020415
12:00+17n79595 0.0 1019864
15:00+20nne895826 0.0 10171376
18:00+16ne61076100 0.1 1017647
21:00+13ne61085100 0.1 1017578
12 may, wed
wed1200:00+11ene487888 0.0 1017531
03:00+6ne49910 0.0 1017236
06:00+6ene4887100 0.0 1017623
09:00+9ene6863100 0.0 10171226
12:00+13ene665477 0.0 10151554
15:00+14e4550100 0.1 10141778
18:00+13ene3356100 0.0 10131261
21:00+9ese22747 0.1 101314
13 may, thu
thu1300:00+7sse228323 0.0 101313
03:00+6sse338661 0.0 101332
06:00+6se358796 0.0 101388
09:00+12se56630 0.0 1012653
12:00+16sse565291 0.0 10121241
15:00+18sse5752100 0.0 10111400
18:00+18sse476157 0.1 10101304
21:00+14se4982100 0.8 1010202
14 may, fri
fri1400:00+12ese389194 0.3 1010184
03:00+11sse339399 0.4 100948
06:00+10ssw229169 0.0 101029
09:00+15s3467100 0.0 1010440
12:00+19ssw3457100 0.0 1010924
15:00+21sw3452100 0.0 10101376
18:00+21ssw235297 0.0 10101325
21:00+15se1182100 2.5 101012